| time (UTC) | temp F | wind direction | speed MPH | gust MPH | rain 1hr in | rain 24hr in | rain mn in | humidity % | barometer mb |
| 20260508051607 | 51 | 200 | 0.0 | 5.0 | 0.00 | 0.26 | 0.00 | 77 | 1009.6 |
| 20260508050014 | 50 | 166 | 0.0 | 1.0 | 0.00 | 0.26 | 0.00 | 77 | 1009.8 |
| 20260508044518 | 50 | 161 | 0.0 | 0.0 | 0.00 | 0.26 | 0.00 | 76 | 1009.5 |
| 20260508043027 | 51 | 98 | 0.0 | 1.0 | 0.00 | 0.26 | 0.00 | 75 | 1009.2 |
| 20260508041533 | 51 | 211 | 0.0 | 1.0 | 0.00 | 0.26 | 0.00 | 75 | 1009.5 |
| 20260508040333 | 52 | 144 | 0.0 | 0.0 | 0.00 | 0.26 | 0.00 | 73 | 1009.4 |
| 20260508040022 | 51 | 144 | 0.0 | 0.0 | 0.00 | 0.26 | 0.26 | 73 | 1009.4 |
| 20260508034542 | 51 | 225 | 0.0 | 0.0 | 0.00 | 0.26 | 0.26 | 72 | 1009.5 |
| 20260508033058 | 52 | 245 | 0.0 | 2.0 | 0.00 | 0.26 | 0.26 | 71 | 1009.4 |
| 20260508031517 | 52 | 242 | 0.0 | 2.0 | 0.00 | 0.26 | 0.26 | 70 | 1009.7 |
| 20260508030043 | 53 | 237 | 0.0 | 3.0 | 0.00 | 0.27 | 0.26 | 69 | 1009.6 |
| 20260508024558 | 53 | 229 | 0.0 | 1.0 | 0.00 | 0.27 | 0.26 | 68 | 1009.6 |
| 20260508023005 | 54 | 218 | 0.0 | 3.0 | 0.00 | 0.27 | 0.26 | 67 | 1009.6 |
| 20260508021511 | 55 | 120 | 1.0 | 4.0 | 0.00 | 0.27 | 0.26 | 64 | 1009.5 |
| 20260508020321 | 56 | 136 | 0.0 | 3.0 | 0.00 | 0.27 | 0.26 | 59 | 1009.4 |
| 20260508020007 | 56 | 153 | 0.0 | 3.0 | 0.00 | 0.27 | 0.26 | 58 | 1009.4 |
| 20260508014514 | 57 | 137 | 0.0 | 2.0 | 0.00 | 0.27 | 0.26 | 52 | 1009.2 |
| 20260508013033 | 58 | 6 | 0.0 | 1.0 | 0.00 | 0.27 | 0.26 | 42 | 1009.2 |
| 20260508011552 | 59 | 354 | 0.0 | 3.0 | 0.00 | 0.27 | 0.26 | 39 | 1009.1 |
| 20260508010127 | 59 | 5 | 0.0 | 4.0 | 0.00 | 0.27 | 0.26 | 39 | 1008.9 |
| 20260508004516 | 60 | 32 | 0.0 | 5.0 | 0.00 | 0.27 | 0.26 | 38 | 1008.9 |
| 20260508003035 | 60 | 300 | 1.0 | 4.0 | 0.00 | 0.27 | 0.26 | 38 | 1008.6 |
| 20260508001558 | 60 | 2 | 0.0 | 4.0 | 0.00 | 0.27 | 0.26 | 38 | 1008.4 |
| 20260508000305 | 61 | 351 | 0.0 | 4.0 | 0.00 | 0.27 | 0.26 | 36 | 1008.4 |
| 20260508000055 | 61 | 330 | 0.0 | 4.0 | 0.00 | 0.27 | 0.26 | 36 | 1008.3 |
| 20260507234603 | 61 | 313 | 1.0 | 4.0 | 0.00 | 0.27 | 0.26 | 35 | 1008.2 |
| 20260507233018 | 62 | 293 | 1.0 | 4.0 | 0.00 | 0.27 | 0.26 | 34 | 1008.0 |
| 20260507231537 | 64 | 320 | 0.0 | 5.0 | 0.00 | 0.27 | 0.26 | 32 | 1008.0 |
| 20260507230113 | 64 | 326 | 2.0 | 7.0 | 0.00 | 0.27 | 0.26 | 31 | 1007.9 |
| 20260507224530 | 64 | 308 | 2.0 | 7.0 | 0.00 | 0.27 | 0.26 | 31 | 1007.8 |
| 20260507223105 | 64 | 352 | 1.0 | 11.0 | 0.00 | 0.27 | 0.26 | 32 | 1007.8 |
| 20260507221542 | 65 | 330 | 3.0 | 9.0 | 0.00 | 0.27 | 0.26 | 31 | 1007.8 |
| 20260507220331 | 66 | 250 | 4.0 | 8.0 | 0.00 | 0.27 | 0.26 | 30 | 1007.9 |
| 20260507220027 | 65 | 337 | 3.0 | 8.0 | 0.00 | 0.27 | 0.26 | 30 | 1007.8 |
| 20260507214556 | 65 | 64 | 5.0 | 11.0 | 0.00 | 0.27 | 0.26 | 30 | 1007.8 |
| 20260507213008 | 66 | 89 | 4.0 | 12.0 | 0.00 | 0.27 | 0.26 | 31 | 1007.8 |
| 20260507211516 | 66 | 255 | 3.0 | 11.0 | 0.00 | 0.27 | 0.26 | 32 | 1007.6 |
| 20260507210041 | 66 | 282 | 4.0 | 10.0 | 0.00 | 0.27 | 0.26 | 31 | 1007.5 |
| 20260507204556 | 66 | 302 | 2.0 | 10.0 | 0.00 | 0.27 | 0.26 | 32 | 1007.5 |
| 20260507203030 | 64 | 321 | 2.0 | 10.0 | 0.00 | 0.27 | 0.26 | 34 | 1007.7 |
| 20260507201531 | 66 | 302 | 1.0 | 8.0 | 0.00 | 0.27 | 0.26 | 32 | 1007.7 |
| 20260507200322 | 66 | 295 | 3.0 | 12.0 | 0.00 | 0.27 | 0.26 | 33 | 1007.8 |
| 20260507200053 | 66 | 264 | 4.0 | 12.0 | 0.00 | 0.27 | 0.26 | 33 | 1007.8 |
| 20260507194554 | 65 | 348 | 3.0 | 8.0 | 0.00 | 0.27 | 0.26 | 33 | 1007.9 |
| 20260507193004 | 65 | 264 | 3.0 | 8.0 | 0.00 | 0.27 | 0.26 | 35 | 1008.0 |
| 20260507191520 | 65 | 317 | 3.0 | 9.0 | 0.00 | 0.27 | 0.26 | 32 | 1008.2 |
| 20260507190039 | 64 | 276 | 2.0 | 8.0 | 0.00 | 0.27 | 0.26 | 31 | 1008.4 |
| 20260507184555 | 64 | 229 | 4.0 | 9.0 | 0.00 | 0.27 | 0.26 | 33 | 1008.6 |
| 20260507183003 | 64 | 277 | 2.0 | 8.0 | 0.00 | 0.27 | 0.26 | 31 | 1008.7 |
| 20260507181501 | 63 | 297 | 2.0 | 14.0 | 0.00 | 0.27 | 0.26 | 34 | 1008.8 |
| 20260507180319 | 64 | 326 | 3.0 | 8.0 | 0.00 | 0.27 | 0.26 | 36 | 1009.1 |
| 20260507180012 | 64 | 15 | 3.0 | 12.0 | 0.00 | 0.28 | 0.26 | 34 | 1009.0 |
| 20260507174528 | 62 | 15 | 2.0 | 9.0 | 0.00 | 0.28 | 0.26 | 35 | 1009.3 |
| 20260507173042 | 63 | 20 | 4.0 | 9.0 | 0.00 | 0.28 | 0.26 | 35 | 1009.5 |
| 20260507171606 | 62 | 224 | 3.0 | 10.0 | 0.00 | 0.28 | 0.26 | 35 | 1009.7 |
| 20260507170022 | 62 | 10 | 5.0 | 14.0 | 0.00 | 0.30 | 0.26 | 34 | 1009.8 |
| 20260507164533 | 61 | 13 | 2.0 | 12.0 | 0.00 | 0.30 | 0.26 | 35 | 1010.0 |
| 20260507163050 | 62 | 338 | 3.0 | 8.0 | 0.00 | 0.30 | 0.26 | 36 | 1010.2 |
| 20260507161505 | 61 | 1 | 1.0 | 7.0 | 0.00 | 0.30 | 0.26 | 39 | 1010.3 |
| 20260507160310 | 61 | 323 | 3.0 | 8.0 | 0.00 | 0.30 | 0.26 | 38 | 1010.6 |
| 20260507160021 | 61 | 11 | 3.0 | 9.0 | 0.00 | 0.30 | 0.26 | 38 | 1010.7 |
| 20260507154542 | 60 | 328 | 3.0 | 9.0 | 0.00 | 0.30 | 0.26 | 39 | 1010.8 |
| 20260507153107 | 60 | 257 | 2.0 | 9.0 | 0.00 | 0.30 | 0.26 | 44 | 1010.9 |
| 20260507151600 | 59 | 232 | 1.0 | 8.0 | 0.00 | 0.30 | 0.26 | 42 | 1011.1 |
| 20260507150054 | 59 | 316 | 4.0 | 9.0 | 0.00 | 0.30 | 0.26 | 45 | 1011.2 |
| 20260507144509 | 58 | 305 | 1.0 | 8.0 | 0.00 | 0.30 | 0.26 | 51 | 1011.3 |
| 20260507143019 | 57 | 27 | 3.0 | 6.0 | 0.00 | 0.30 | 0.26 | 53 | 1011.5 |
| 20260507141530 | 56 | 329 | 2.0 | 10.0 | 0.00 | 0.30 | 0.26 | 57 | 1011.4 |
| 20260507140314 | 56 | 317 | 3.0 | 11.0 | 0.00 | 0.30 | 0.26 | 60 | 1011.5 |
| 20260507140013 | 55 | 319 | 3.0 | 11.0 | 0.00 | 0.30 | 0.26 | 61 | 1011.5 |
| 20260507134522 | 53 | 319 | 2.0 | 8.0 | 0.00 | 0.30 | 0.26 | 63 | 1011.5 |
| 20260507133034 | 53 | 342 | 3.0 | 8.0 | 0.00 | 0.30 | 0.26 | 66 | 1011.5 |
| 20260507131540 | 53 | 288 | 0.0 | 9.0 | 0.00 | 0.30 | 0.26 | 72 | 1011.4 |
| 20260507130100 | 51 | 294 | 0.0 | 5.0 | 0.00 | 0.30 | 0.26 | 75 | 1011.5 |
| 20260507124620 | 51 | 1 | 3.0 | 7.0 | 0.00 | 0.30 | 0.26 | 75 | 1011.5 |
| 20260507123016 | 50 | 6 | 2.0 | 8.0 | 0.00 | 0.30 | 0.26 | 77 | 1011.7 |
| 20260507121539 | 50 | 328 | 2.0 | 5.0 | 0.00 | 0.30 | 0.26 | 77 | 1011.7 |
| 20260507120300 | 50 | 335 | 1.0 | 6.0 | 0.00 | 0.30 | 0.26 | 78 | 1011.7 |
| 20260507120038 | 50 | 326 | 1.0 | 4.0 | 0.00 | 0.30 | 0.26 | 79 | 1011.6 |
| 20260507114602 | 50 | 329 | 0.0 | 4.0 | 0.00 | 0.30 | 0.26 | 79 | 1011.4 |
| 20260507113009 | 50 | 312 | 1.0 | 5.0 | 0.00 | 0.30 | 0.26 | 80 | 1011.2 |
| 20260507111520 | 50 | 306 | 0.0 | 6.0 | 0.00 | 0.30 | 0.26 | 80 | 1010.9 |
| 20260507110028 | 49 | 333 | 2.0 | 6.0 | 0.00 | 0.30 | 0.26 | 80 | 1010.8 |
| 20260507104540 | 49 | 323 | 0.0 | 7.0 | 0.00 | 0.30 | 0.26 | 81 | 1010.7 |
| 20260507103105 | 49 | 255 | 1.0 | 8.0 | 0.00 | 0.30 | 0.26 | 81 | 1010.5 |
| 20260507101520 | 49 | 314 | 0.0 | 7.0 | 0.00 | 0.30 | 0.26 | 83 | 1010.4 |
| 20260507100313 | 50 | 39 | 0.0 | 4.0 | 0.01 | 0.30 | 0.26 | 84 | 1010.2 |
| 20260507100013 | 49 | 300 | 0.0 | 4.0 | 0.01 | 0.30 | 0.26 | 84 | 1010.1 |
| 20260507094522 | 49 | 238 | 1.0 | 6.0 | 0.01 | 0.30 | 0.26 | 85 | 1010.1 |
| 20260507093057 | 49 | 326 | 1.0 | 7.0 | 0.02 | 0.30 | 0.26 | 86 | 1009.9 |
| 20260507091509 | 49 | 304 | 0.0 | 5.0 | 0.03 | 0.30 | 0.26 | 87 | 1009.8 |
| 20260507090020 | 49 | 297 | 0.0 | 4.0 | 0.02 | 0.28 | 0.25 | 87 | 1009.9 |
| 20260507084545 | 49 | 304 | 0.0 | 5.0 | 0.02 | 0.28 | 0.25 | 85 | 1009.9 |
| 20260507083104 | 49 | 246 | 1.0 | 8.0 | 0.02 | 0.28 | 0.24 | 85 | 1010.2 |
| 20260507081504 | 49 | 320 | 1.0 | 8.0 | 0.02 | 0.27 | 0.23 | 84 | 1009.5 |
| 20260507080303 | 50 | 304 | 2.0 | 10.0 | 0.04 | 0.27 | 0.23 | 85 | 1010.1 |
| 20260507080004 | 49 | 328 | 2.0 | 10.0 | 0.04 | 0.27 | 0.23 | 85 | 1010.0 |
| 20260507074521 | 50 | 4 | 2.0 | 8.0 | 0.04 | 0.26 | 0.22 | 85 | 1010.2 |
| 20260507073052 | 50 | 339 | 2.0 | 9.0 | 0.06 | 0.26 | 0.22 | 85 | 1009.9 |
| 20260507071555 | 50 | 302 | 2.0 | 9.0 | 0.09 | 0.25 | 0.21 | 85 | 1010.0 |
| 20260507070012 | 51 | 224 | 1.0 | 9.0 | 0.13 | 0.23 | 0.19 | 85 | 1009.8 |
| 20260507064535 | 51 | 274 | 0.0 | 3.0 | 0.16 | 0.22 | 0.18 | 86 | 1010.0 |
| 20260507063043 | 52 | 299 | 1.0 | 4.0 | 0.16 | 0.20 | 0.16 | 85 | 1009.6 |
| 20260507061550 | 52 | 238 | 0.0 | 7.0 | 0.11 | 0.15 | 0.11 | 83 | 1009.9 |
| 20260507060310 | 53 | 312 | 1.0 | 5.0 | 0.06 | 0.10 | 0.06 | 82 | 1009.5 |
| 20260507060016 | 53 | 33 | 1.0 | 5.0 | 0.06 | 0.10 | 0.06 | 81 | 1009.1 |
| 20260507054511 | 54 | 338 | 1.0 | 8.0 | 0.01 | 0.05 | 0.01 | 75 | 1008.9 |
| 20260507053013 | 55 | 202 | 3.0 | 10.0 | 0.00 | 0.04 | 0.00 | 71 | 1009.4 |